Location: Bathurst
(33.4193°S, 149.5775°E)
Time: 02:20:48
(UTC+10:00)

A-11 Canister half - Pass Details

Date: 18 June 2021
Orbit: 1513 x 1687 km, 47.2° (Epoch: 24 July)

Event Time Altitude Azimuth Distance (km) Brightness Sun altitude
Rises 18:48:46 0° 265° (W) 4,712 12.8 -21.8°
Reaches altitude 10° 18:52:07 10° 257° (WSW) 3,753 11.9 -22.5°
Maximum altitude 19:00:52 38° 191° (S) 2,269 9.8 -24.2°
Enters shadow 19:05:08 27° 146° (SE) 2,732 9.9 -25.1°
